COSMOS 2500 (755)

Last updated on Thu Jul 03 2025 00:03:17 GMT+0000 (Coordinated Universal Time)

1 40001U 14032A 25183.44488692 -.00000074 00000+0 00000+0 0 9999 2 40001 65.4336 325.5777 0007419 188.0330 171.9533 2.13106025 86007
UTC large
Height (km)
Speed (km/s)
/
Latitude / Longitude
Inclination (degrees)
Orbital Period (minutes)
Azimuth
Elevation
Range (km)
Doppler Factor

Next 0 passes for location: London (51.5072 / 0.1276)

Sorry there are no passes over London.